RH
61 62 63 64 67 74 83 96 76 68 76 75 94 90 79 67 51 48 49 56 55 57 53 47 46 45 36 48 51 54 57 64 77 49 47 48 59 55 59 77 67 75 71 64
60 61 62 64 67 68 94 98 97 81 72 89 96 79 73 68 66 66 62 60 57 57 56 56 50 46 49 50 54 55 57 65 76 47 53 58 56 54 57 59 68 67 76 57
59 60 60 63 66 63 86 88 96 89 88 70 84 93 81 75 63 73 70 73 73 83 88 59 60 58 55 63 59 61 52 62 52 55 41 50 60 54 52 58 82 50 49 38
59 59 60 60 64 61 92 97 93 92 96 82 96 92 87 85 79 63 60 79 67 72 90 84 82 80 77 67 64 75 65 77 76 65 54 55 52 52 48 62 47 57 36 37
57 58 59 59 61 65 92 97 94 87 95 90 78 70 75 84 73 67 59 76 70 69 66 61 72 74 80 80 75 80 79 90 79 76 60 65 65 56 51 51 52 53 46 46
56 57 59 58 59 69 96 96 91 96 80 91 86 78 79 76 70 63 58 70 82 83 68 68 69 67 64 64 68 68 72 90 86 83 60 60 61 57 43 47 58 50 56 35
57 62 55 57 56 73 92 93 97 92 86 86 78 78 76 78 77 84 71 71 87 62 49 60 59 56 64 66 79 58 60 77 88 90 79 88 50 40 41 41 42 50 44 40
56 61 57 55 55 55 88 95 88 98 98 84 72 75 84 78 76 76 72 63 59 55 64 66 64 60 75 78 83 79 62 63 85 94 79 57 52 44 46 52 40 39 46 38
60 57 57 58 54 54 86 90 92 94 99 83 69 84 82 93 96 92 72 60 49 52 69 71 81 66 57 58 66 83 72 72 75 75 90 81 51 45 39 40 52 33 33 32
61 61 61 61 60 58 77 90 88 96 98 80 75 94 94 84 82 92 79 75 84 75 78 89 80 78 55 56 49 69 74 94 95 91 90 68 52 50 50 59 48 44 40 44
59 59 58 58 58 58 74 80 94 95 94 76 69 68 80 84 90 94 72 77 68 96 97 87 76 91 73 74 84 94 90 92 77 83 95 89 60 56 64 64 60 56 57 45
60 59 59 59 59 60 67 94 86 90 98 84 64 62 64 72 71 81 80 78 76 80 93 97 97 80 79 73 88 48 76 76 93 94 88 66 65 57 50 58 67 64 68 60
58 60 62 60 61 59 66 97 94 97 98 84 84 84 66 58 65 63 90 72 69 73 69 84 90 95 83 86 68 67 50 70 70 85 58 52 45 42 46 49 66 64 60 56
66 63 64 64 65 65 66 93 86 95 97 98 72 45 63 52 51 60 65 68 61 63 73 89 94 91 73 78 67 65 71 60 60 62 58 46 39 36 35 49 63 63 57 59
67 67 60 58 59 61 73 95 82 85 87 90 71 60 56 52 52 56 54 64 74 84 92 95 92 79 74 68 66 79 52 59 68 68 43 44 43 38 41 55 72 69 64 60
60 59 60 63 61 61 95 93 86 83 82 98 96 73 67 49 50 58 64 66 68 78 90 91 82 67 73 91 85 54 48 44 46 52 42 41 43 39 42 72 65 72 62 62
59 61 63 61 62 80 89 83 72 78 93 99 97 97 72 66 60 69 63 58 68 76 88 93 86 78 75 92 93 55 50 46 42 40 42 49 44 47 45 68 65 65 70 76
60 60 59 61 63 68 87 74 72 75 93 96 98 94 80 59 52 77 76 76 83 95 87 85 78 77 88 95 69 56 49 46 47 45 41 41 38 39 47 48 52 65 80 84
60 65 66 76 91 98 94 72 72 93 94 98 100 97 84 73 70 64 77 89 97 87 94 83 87 89 94 62 49 46 46 49 49 47 47 47 47 46 44 46 49 70 84 90
70 83 95 96 92 73 73 88 92 95 98 99 98 88 94 77 85 95 98 98 97 98 92 86 97 85 55 50 52 46 44 43 43 55 57 53 52 50 47 46 50 68 78 87
93 98 99 94 78 94 98 100 99 97 97 98 98 96 96 88 95 88 94 97 97 98 90 94 97 95 86 67 70 72 73 67 55 46 45 44 44 46 45 46 56 76 86 86
89 88 92 98 95 96 100 98 96 98 97 98 98 98 93 91 98 99 96 97 96 95 95 98 98 89 68 74 74 70 70 74 78 75 58 51 49 47 46 50 79 89 83 92
95 96 97 94 92 93 100 100 95 99 97 97 96 94 94 94 98 99 99 99 96 95 98 93 95 72 75 81 78 78 73 74 76 80 83 74 59 57 58 88 78 81 92 96
98 96 90 92 95 98 94 96 98 94 98 94 90 94 96 97 98 96 97 91 98 96 95 95 80 84 86 85 81 83 83 82 86 86 82 86 71 84 85 78 81 90 95 96
97 95 97 98 92 97 97 98 98 96 97 96 95 98 97 97 97 96 96 94 96 92 92 84 91 90 91 92 92 91 91 93 95 96 89 87 85 93 96 93 92 96 97 96
97 99 98 95 99 96 97 98 97 95 98 98 97 96 97 96 97 96 96 95 95 92 95 94 93 92 94 94 94 95 96 96 95 96 96 94 91 92 95 95 96 96 95 94
89 99 97 95 96 97 97 97 93 97 98 98 97 97 96 96 96 96 94 95 95 96 94 94 95 96 95 95 95 95 96 95 95 94 95 95 95 93 91 94 95 90 86 84
Wind_Speed
24 26 29 31 32 30 7 3 4 4 4 4 1 1 5 6 6 6 5 2 3 4 3 4 4 6 5 1 6 5 4 4 5 11 2 5 4 6 6 5 4 4 2 13
23 26 29 31 33 29 4 3 3 4 3 3 3 6 5 3 8 8 7 6 5 7 4 6 4 4 5 7 2 4 3 2 4 10 3 1 4 5 5 1 3 9 3 13
22 24 26 29 32 29 3 4 6 6 6 4 4 5 4 6 7 3 7 7 7 7 7 5 7 7 5 11 5 6 1 4 7 8 7 1 4 4 4 5 3 6 15 28
19 22 24 26 29 27 4 6 5 3 5 5 5 4 5 7 9 9 11 2 15 10 6 8 6 7 10 11 10 2 1 6 5 9 14 8 13 18 15 12 20 10 29 17
17 19 20 22 24 19 6 4 5 5 3 5 6 5 5 5 7 6 10 6 14 11 8 11 19 17 7 9 7 8 5 6 4 9 9 10 17 16 18 18 19 14 22 26
15 16 17 19 20 13 4 2 3 2 5 5 4 3 5 6 12 6 4 14 15 7 12 10 17 18 19 22 21 19 13 5 3 17 5 9 19 16 19 10 8 9 10 19
15 13 15 15 16 7 3 2 2 2 3 2 4 8 10 13 10 12 15 14 5 6 16 19 18 20 24 24 26 22 19 14 5 13 4 19 11 5 6 13 13 12 14 17
13 13 13 13 13 12 3 1 1 1 3 3 11 6 4 10 11 14 15 16 11 10 9 12 10 6 6 9 20 22 23 15 9 9 13 19 24 20 8 7 17 7 14 21
13 13 14 12 12 12 3 2 2 1 1 4 4 7 11 6 3 4 5 6 13 12 6 5 5 6 7 7 11 7 6 15 13 13 14 12 4 6 8 6 19 9 10 20
15 15 14 15 13 12 4 3 4 2 4 5 4 5 3 2 7 8 7 6 3 6 7 9 12 13 5 9 7 4 6 4 13 16 15 14 6 3 1 4 7 20 15 9
15 16 16 16 16 16 8 4 6 4 5 9 16 14 13 7 7 9 7 10 5 2 4 6 6 5 3 7 5 6 7 7 10 8 11 22 15 4 4 9 13 13 18 16
17 17 17 17 17 18 13 4 3 4 6 10 13 16 14 15 22 14 7 10 15 6 4 3 3 10 8 15 19 14 11 9 4 5 5 16 11 6 13 7 9 13 18 22
18 19 20 19 18 18 15 4 3 2 6 11 10 10 17 17 19 14 8 9 9 8 13 9 9 15 5 14 16 13 18 11 15 11 10 16 22 31 11 9 9 14 13 21
20 19 20 19 19 19 16 4 4 2 5 8 16 9 7 10 12 15 17 22 21 13 8 12 11 15 8 14 17 18 11 9 15 17 20 21 21 17 17 10 14 13 17 18
20 18 18 19 19 19 11 4 7 8 8 7 13 14 20 18 19 20 17 17 21 13 12 11 14 12 12 12 17 17 11 22 15 20 20 15 21 19 18 18 16 15 16 24
18 18 20 20 20 19 2 4 4 4 6 5 5 5 6 21 18 17 18 17 14 14 9 8 9 23 16 14 22 24 18 20 20 22 23 19 21 21 17 10 13 15 16 16
19 20 20 21 21 7 5 7 5 4 4 4 6 5 4 3 7 4 7 12 10 8 9 12 17 18 15 14 28 18 19 21 24 24 18 20 23 16 14 10 10 12 14 11
21 21 23 24 26 21 10 7 16 10 7 4 5 7 3 4 11 4 2 7 4 7 8 4 8 7 7 12 28 26 28 29 25 26 19 22 20 20 14 12 10 14 12 7
22 23 24 11 2 2 4 8 13 3 6 4 3 2 10 3 4 8 5 5 4 5 7 7 6 6 10 19 16 16 21 19 22 18 18 20 21 21 18 16 13 15 12 4
21 5 4 5 4 6 14 6 4 4 2 4 2 2 5 3 6 4 4 4 4 3 6 3 6 11 18 18 23 24 22 21 15 12 17 17 18 18 17 17 14 14 7 10
3 1 4 5 9 4 3 3 1 2 3 2 2 3 3 3 7 7 4 4 4 4 5 5 4 2 6 14 17 15 17 17 16 15 20 18 17 14 14 14 10 10 10 10
6 5 3 3 3 3 1 4 3 4 2 1 2 2 2 5 2 4 5 5 4 8 3 4 3 4 17 18 22 22 19 19 19 14 15 17 15 15 12 9 8 8 11 13
3 2 3 3 4 4 4 5 5 2 3 2 3 5 3 5 2 5 4 7 7 1 3 3 3 13 17 18 18 20 20 20 20 19 17 14 12 10 9 7 7 13 13 11
1 2 4 5 5 6 5 3 3 3 1 4 6 5 4 3 4 4 6 7 3 4 8 7 10 19 20 18 17 19 23 22 21 20 17 15 7 8 10 12 12 16 15 13
3 4 6 7 4 3 4 4 1 2 1 3 5 4 4 4 5 4 6 9 6 6 7 8 12 19 17 18 19 19 19 19 15 11 10 10 17 19 20 15 13 14 14 15
3 1 3 3 1 5 3 1 2 2 1 3 3 4 3 5 3 4 6 6 6 6 7 10 12 16 16 17 17 17 16 16 17 19 19 21 22 23 21 19 16 15 15 16
3 5 3 5 7 3 1 2 3 0 2 3 3 4 2 4 3 4 5 5 6 6 7 8 12 15 16 15 15 16 15 16 18 21 21 22 21 22 22 21 17 16 16 16
Wind_Direction
6 4 0 358 356 352 42 15 49 313 355 53 34 22 317 307 329 353 313 310 281 253 294 291 262 241 252 145 157 186 214 165 262 238 223 156 167 202 164 143 237 245 238 271
9 6 3 1 359 3 330 29 279 324 36 58 14 324 315 317 12 4 348 319 2 2 314 312 256 305 359 9 267 198 188 242 328 328 33 71 204 200 199 118 106 213 225 268
9 8 7 3 360 358 9 353 1 341 28 31 28 349 303 337 7 89 346 354 44 356 347 337 301 326 345 326 320 322 246 215 200 224 248 317 262 224 201 188 202 283 234 274
10 8 8 7 7 0 53 15 33 24 351 355 337 315 324 344 8 3 2 59 35 4 304 313 330 0 330 324 306 324 350 238 215 254 259 268 265 272 263 223 250 219 273 260
7 6 8 9 16 5 66 54 11 345 309 310 352 345 17 23 4 343 321 15 340 329 295 291 303 310 330 266 314 357 342 280 292 275 277 248 258 255 262 249 251 248 258 274
0 4 3 9 19 30 77 351 341 19 309 340 345 350 17 332 347 288 314 336 325 320 289 311 292 275 266 258 265 272 282 265 269 273 255 310 277 218 241 235 203 208 222 250
350 354 359 7 8 61 94 86 95 356 296 335 302 320 308 304 310 287 293 297 259 278 304 295 282 265 251 243 245 229 234 237 251 275 300 265 255 207 246 247 251 214 257 262
338 347 348 350 355 8 84 163 38 323 280 255 288 287 296 320 296 282 281 280 269 292 301 310 306 294 275 256 240 228 222 215 239 245 242 273 286 292 269 193 278 249 238 264
331 331 329 330 335 331 98 205 162 190 275 239 239 315 283 281 274 277 266 307 312 324 299 271 265 281 347 299 323 48 200 234 231 230 240 251 230 329 281 134 272 280 237 258
324 325 324 324 318 312 311 242 179 209 257 253 214 211 229 278 269 271 287 260 317 258 261 262 262 260 235 266 255 283 324 282 235 243 247 258 263 284 54 192 322 341 348 306
313 315 314 314 311 311 312 270 180 189 258 266 255 260 257 250 229 261 272 305 259 250 233 260 240 261 265 288 287 327 296 302 269 239 248 239 359 32 354 327 328 339 343 334
303 304 303 299 297 297 303 269 201 193 230 262 275 262 233 221 248 265 255 258 268 245 270 230 257 275 288 276 275 293 253 226 272 303 297 314 303 309 298 286 317 337 335 329
299 296 295 294 292 297 295 221 235 198 263 276 251 236 242 240 232 226 238 250 230 225 230 255 250 254 236 260 262 260 260 237 258 274 250 300 312 307 292 304 320 326 330 331
298 301 300 305 305 304 303 262 248 211 280 271 283 272 229 211 229 218 215 239 262 257 254 257 255 263 225 256 265 257 249 313 275 270 268 285 273 263 290 335 316 319 323 330
302 306 309 306 303 302 304 233 255 217 227 268 288 296 276 258 249 250 239 232 240 242 247 249 253 252 263 260 268 261 248 254 255 262 265 271 284 296 295 307 304 313 328 329
306 304 299 300 304 304 356 298 288 216 201 267 280 282 274 270 262 245 242 236 237 231 242 248 249 246 245 255 259 259 262 256 245 258 265 259 260 264 269 264 301 317 315 312
301 299 301 301 298 292 250 232 223 134 126 253 259 271 267 276 238 237 253 248 238 230 240 234 244 246 247 262 265 282 267 249 245 244 246 250 249 253 265 216 245 277 299 289
302 302 301 299 294 291 273 262 262 267 264 262 270 270 328 210 285 286 268 267 231 205 228 217 241 256 222 247 243 244 251 255 254 252 248 253 259 259 236 258 288 291 278 257
300 307 307 303 327 226 245 298 288 200 197 227 215 109 302 342 281 298 281 238 239 241 239 222 206 211 229 247 268 267 258 260 262 260 247 245 247 254 260 261 256 245 248 223
309 348 36 307 236 287 313 359 6 10 253 242 240 122 249 335 292 279 293 234 233 249 240 151 220 247 264 310 304 286 282 275 267 258 252 246 248 247 251 249 241 231 233 214
36 10 232 250 313 23 34 301 311 275 262 234 234 171 224 257 269 277 239 266 264 256 254 177 233 222 341 323 318 317 320 311 286 256 259 256 251 244 240 241 227 219 184 169
219 247 299 326 354 340 88 248 257 234 283 284 348 336 264 270 238 255 248 237 242 252 150 228 247 22 344 332 323 323 318 310 299 290 264 251 238 235 228 221 199 164 142 131
42 53 4 46 291 250 208 257 289 321 335 321 345 321 246 316 280 258 259 254 236 116 213 241 63 341 335 328 324 319 313 302 293 282 269 265 232 195 184 151 129 123 125 131
299 96 281 164 281 246 199 214 215 259 255 339 327 281 251 243 257 243 252 260 287 347 7 5 344 336 328 326 324 319 315 305 290 273 257 244 207 126 107 113 122 123 122 129
199 101 236 225 247 256 241 238 26 301 16 306 296 257 234 251 264 252 284 346 24 23 359 316 328 327 331 333 334 331 332 326 314 266 204 146 105 97 94 95 101 104 105 99
98 268 276 255 25 282 310 345 307 249 293 282 219 251 265 257 268 328 13 1 15 334 327 325 327 336 343 344 343 347 353 4 26 47 77 92 93 93 91 82 79 80 85 87
253 266 235 248 268 305 251 221 252 291 284 234 243 243 269 314 5 35 21 3 324 329 334 339 341 345 351 352 358 3 13 30 42 59 62 72 80 82 77 76 69 74 77 78